Warning: Javascript must be enabled to use all the features on this page!


Page Loading - Please Wait...

Click to hideNews Bulletins

Peak Streamflow for Idaho

Click to hide state-specific text

USGS 13077000 SNAKE RIVER AT NEELEY ID

Power County, Idaho
Hydrologic Unit Code 17040209
Latitude  42°46'03", Longitude 112°52'46" NAD83
Drainage area 13,600  square miles
Contributing drainage area 13,600  square miles
Gage datum 4,241.60 feet above NGVD29
Output formats
Table
Graph
Tab-separated file
peakfq (watstore) format
Reselect output format
Water
Year
Date Gage
Height
(feet)
Stream-
flow
(cfs)
1906 1906-06-16   27,9001,6
1907 1907-06-12   35,3001,6
1908 1908-06-22   33,0001,6
1909 1909-06-11   41,1001,6
1910 1910-05-02   31,8001,6
1911 1911-06-22   37,6001,6
1912 1912-06-18   36,6001,6
1913 1913-06-09   35,5001,6
1914 1914-06-09 11.953 38,0006
1915 1915-06-06 8.223 17,4006
1916 1916-06-23   26,8001,6
1917 1917-06-24 11.733 37,7006
1918 1918-06-20   48,4001,6
1919 1919-05-02   14,9001,6
1920 1920-05-21 9.563 25,0006
1921 1921-06-02 10.973 32,2006
1922 1922-05-28 10.393 28,8006
1923 1923-05-29 9.323 23,0006
1924 1924-06-03 7.003 12,1006
1925 1925-05-24 10.043 26,8006
1926 1926-04-21 6.853 11,6006
1927 1927-07-02 11.373 33,8003,6
1928 1928-05-28 10.443 29,0006
1929 1929-04-04 7.603 14,5006
1930 1930-06-24 5.823,6 10,7006
1931 1931-07-03   10,8001,6
1932 1932-07-10   12,1001,6
1933 1933-07-26   11,7001,6
1934 1934-07-29 5.373 9,4106
1935 1935-07-16   11,9001,6
1936 1936-06-04   28,4001,6
1937 1937-05-09   15,8001,6
1938 1938-05-05   24,7001,6
1939 1939-05-08   15,0001,6
1940 1940-06-25   12,1001,6
1941 1941-05-30 5.953 12,6006
1942 1942-04-25 8.593,6 20,5006
1943 1943-06-04 10.403 30,0006
1944 1944-06-14 9.243 23,5006
1945 1945-06-10 8.91 24,5006
1946 1946-04-25 9.31 26,9001,6
1947 1947-06-11 9.44 27,6006
1948 1948-06-23 9.25 26,1006
1949 1949-06-23 7.74 16,8006
1950 1950-06-27 9.71 29,0006
1951 1951-05-15 8.62 22,4006
1952 1952-05-11 8.77 24,0001,6
1953 1953-06-15 8.69 23,1006
1954 1954-05-25 8.59 22,3006
1955 1955-06-12 7.06 14,4006
1956 1956-06-03 9.48 28,3006
1957 1957-05-20 8.90 25,1006
1958 1958-05-11 7.27 15,8006
1959 1959-07-29 6.90 13,3006
1960 1960-07-24 6.92 13,8006
1961 1961-07-25 6.80 13,4006
1962 1962-04-30 8.07 20,7006
1963 1963-06-20 9.13 27,1006
1964 1964-06-22 9.59 29,0006
1965 1965-05-07 8.00 20,4006
1966 1966-08-18 6.90 13,6006
1967 1967-06-20 7.96 19,8006
1968 1968-06-17 8.49 22,4006
1969 1969-04-27 8.55 23,4006
1970 1970-05-21   24,5006
1971 1971-05-15 9.41 30,1006
1972 1972-06-11 8.54 22,8006
1973 1973-04-15 6.99 13,4006
1974 1974-05-06 8.85 24,7006
1975 1975-05-28 8.02 19,4006
1976 1976-05-23 9.26 27,9006
1977 1977-06-29 6.48 11,7006
1978 1978-07-31 7.24 15,1006
1979 1979-07-18 7.81 18,3006
1980 1980-06-09 8.90 24,7006
1981 1981-06-01 8.55 22,1006
1982 1982-05-11 8.68 23,9006
1983 1983-06-15 9.71 30,7006
1984 1984-06-19 9.67 29,3006
1985 1985-05-10 8.88 25,2006
1986 1986-05-18   26,5001,6
1987 1987-06-29 6.70 13,4006
1988 1988-06-25 6.93 14,0006
1989 1989-07-05 7.04 14,5006
1990 1990-07-17 6.91 13,9006
1991 1991-07-05 6.86 14,2006
1992 1992-07-11   11,1001,6
1993 1993-06-15 8.13 21,1006
1994 1994-06-27 7.08 14,9006
1995 1995-06-13 8.44 22,9006
1996 1996-06-02   22,4001,6
1997 1997-06-19 11.46 46,1006
1998 1998-05-31 8.36 22,4006
1999 1999-06-12 9.24 28,3006
2000 2000-06-30   13,8001,6
2001 2001-06-27 6.61 12,4006
2002 2002-06-25 6.54 12,0006
2003 2003-06-18   12,4001,6
2004 2004-06-12   11,7001,6
2005 2005-07-04   13,5001,6
2006 2006-04-30   21,5001,6
2007 2007-07-06 7.31 14,9006
2008 2008-06-28 7.42 16,6006
2009 2009-06-30 8.84 25,2006
2010 2010-07-08 6.82 14,1006
2011 2011-06-07 9.43 30,0006
2012 2012-06-29 7.22 16,3006
2013 2013-05-16 6.60 13,1006
2014 2014-06-20 7.39 17,6006
2015 2015-06-24 6.82 14,4006
2016 2016-06-04 7.11 15,4006
2017 2017-06-16 9.03 27,8006
2018 2018-06-07 8.26 22,8006
2019 2019-04-29 8.25 22,7006
2020 2020-06-17 7.22 16,6006
?
  Peak Gage-Height Qualification Codes.
?
  Peak Streamflow Qualification Codes.